Skip Page Navigation
NASA JPL Caltech
NASA Logo - Jet Propulsion Laboratory + View the NASA Portal
+ Center for Near-Earth Object Studies
JPL Home Earth Solar System Stars & Galaxies Technology
JPL Solar System Dynamics
BODIES ORBITS EPHEMERIDES TOOLS PHYSICAL DATA DISCOVERY FAQ SITE MAP
JPL Small-Body Database Browser
Search: [ help ]  
186201 (2001 VP124)
Classification: Main-belt Asteroid          SPK-ID: 2186201
Ephemeris | Orbit Diagram | Orbital Elements | Mission Design | Physical Parameters | Discovery Circumstances | Close-Approach Data ]

[ show orbit diagram ]
Orbital Elements at Epoch 2459200.5 (2020-Dec-17.0) TDB
Reference: JPL 21 (heliocentric ecliptic J2000)
 Element Value Uncertainty (1-sigma)   Units 
e .06480961216001133 3.7782e-08  
a 2.7758171534903 1.7554e-08 au
q 2.595917520345487 1.0959e-07 au
i 4.955374389095648 4.4328e-06 deg
node 73.01279882824331 5.6283e-05 deg
peri 21.86320913102792 7.447e-05 deg
M 11.72943002967681 4.6329e-05 deg
tp 2459145.462446859154
(2020-Oct-22.96244686)
0.0002174 TDB
period 1689.214146004893
4.62
1.6024e-05
4.387e-08
d
yr
n .2131168513189548 2.0216e-09 deg/d
Q 2.955716786635112 1.8692e-08 au
  Orbit Determination Parameters
   # obs. used (total)      446  
   data-arc span      7033 days (19.26 yr)  
   first obs. used      2001-11-09  
   last obs. used      2021-02-10  
   planetary ephem.      DE441  
   SB-pert. ephem.      SB441-N16  
   condition code      0  
   norm. resid. RMS      .55929  
   source      ORB  
   producer      Otto Matic  
   solution date      2021-Apr-13 21:50:19  

Additional Information
 Earth MOID = 1.61315 au 
 Jupiter MOID = 2.15876 au 
 T_jup = 3.327 
[ show covariance matrix ]

Ephemeris | Orbit Diagram | Orbital Elements | Mission Design | Physical Parameters | Discovery Circumstances | Close-Approach Data ]

Physical Parameter Table
Parameter Symbol Value Units Sigma Reference Notes
absolute magnitude H 16.15   n/a MPCxxxxx  

186201 (2001 VP124)          Discovered 2001-Nov-09 by LINEAR at Socorro
Reference: 20080520/Numbers.arcLast Updated: 2008-05-22

[ show close-approach data ]
Ephemeris | Orbit Diagram | Orbital Elements | Mission Design | Physical Parameters | Discovery Circumstances | Close-Approach Data ]
ABOUT SSD CREDITS/AWARDS PRIVACY/COPYRIGHT GLOSSARY LINKS
FirstGov 2021-Jun-20 04:59 UT
(server date/time)  
NASA Home Page
Site Manager:   Ryan S. Park
Webmaster  Alan B. Chamberlin